Simultaneous Nadir Overpasses (SNOs) Predictions

Prediction of SNOs between AURA and NPP Satellite Orbit:

Table of predicted SNOs for the next 14.0 days since TLE Epoch: 7/20/2018
Index Date (AURA) Time (AURA) Lat,Lon (AURA) SZA (AURA ) Date (NPP) Time (NPP) Lat,Lon (NPP) SZA (NPP ) Distance(km) Time Diff (sec)
1 07/22/2018 19:08:56 79.13, 147.22 73.39 07/22/2018 19:07:43 79.13, 147.15 73.46 1.52 73
2 07/22/2018 19:58:15 -79.46, -43.05 107.08 07/22/2018 19:58:19 -79.46, -43.03 107.08 0.33 4
3 07/25/2018 11:25:20 79.31, -95.81 73.70 07/25/2018 11:24:35 79.31, -95.72 73.71 2.07 45
4 07/25/2018 12:14:42 -79.51, 73.19 106.60 07/25/2018 12:15:15 -79.50, 73.10 106.61 2.12 33
5 07/28/2018 03:41:47 79.36, 20.40 74.21 07/28/2018 03:41:31 79.36, 20.38 74.23 0.31 16
6 07/28/2018 04:31:07 -79.63,-170.05 106.20 07/28/2018 04:32:08 -79.64,-169.94 106.27 2.35 61
7 07/30/2018 19:08:52 -79.22, -32.24 104.98 07/30/2018 19:07:47 -79.22, -32.18 104.95 1.29 65
8 07/30/2018 19:58:12 79.44, 136.85 74.71 07/30/2018 19:58:25 79.43, 136.75 74.72 2.10 13
9 08/02/2018 11:25:18 -79.30, 84.18 104.45 08/02/2018 11:24:42 -79.30, 84.19 104.43 0.22 36




NCC Satellite Simultaneous Nadir Overpasses (SNOs) Prediction Service
